Preview of NWS' New Version of Forecast
This preview is not operational and should not be used for support decisions.

Regional Weather Roundup (RWR)

Issued by National Weather Service (NWS)

                            
000
ASUS46 KPQR 190810
RWROR 

OREGON REGIONAL WEATHER ROUNDUP
NATIONAL WEATHER SERVICE PORTLAND OR
100 AM PDT MON AUG 19 2019

NOTE: "FAIR" INDICATES FEW OR NO CLOUDS BELOW 12,000 FEET WITH
NO SIGNIFICANT WEATHER AND/OR OBSTRUCTIONS TO VISIBILITY.

ORZ001>013-190900-
NORTHWEST OREGON

  
CITY           SKY/WX    TMP DP  RH WIND       PRES   REMARKS
ASTORIA        CLEAR     55  54  96 SE3       29.93S                  
TILLAMOOK      CLEAR     54  52  94 CALM      29.95S                  
NEWPORT        CLEAR     54  52  94 CALM      29.97F                  
FLORENCE       CLOUDY    55  54  94 CALM      29.95S                  
PORTLAND       CLEAR     63  54  72 VRB5      29.91R                  
VANCOUVER WA   CLEAR     62  54  74 CALM      29.90R                  
SCAPPOOSE      CLEAR     61  54  77 N5        29.90R                  
HILLSBORO      CLEAR     59  53  80 NW6       29.90S                  
AURORA         CLEAR     62  53  72 N6        29.92R                  
MCMINNVILLE    CLEAR     59  54  83 SW8       29.91R                  
SALEM          CLEAR     62  53  72 W5        29.90R                  
CORVALLIS      CLEAR     60  55  83 NW7       29.93R                  
EUGENE         CLEAR     61  54  77 SW8       29.93R                  
CRESWELL       CLEAR     63  55  77 SW6       29.92R                  
$$

ORZ021-028-190900-
SOUTHWEST OREGON

  
CITY           SKY/WX    TMP DP  RH WIND       PRES   REMARKS
NORTH BEND     CLOUDY    61  58  90 CALM      29.98R                  
BROOKINGS      LGT RAIN  54  52  94 CALM      29.97R VSB 1            
ROSEBURG       CLEAR     65  53  65 N5        29.93R                  
SEXTON SUMMIT  CLEAR     58  52  80 NW6       30.00R                  
GRANTS PASS    FAIR      66  54  63 CALM      29.93R                  
MEDFORD        CLEAR     72  52  49 CALM      29.88R                  
$$

ORZ014>016-041-190900-
COLUMBIA GORGE

  
CITY           SKY/WX    TMP DP  RH WIND       PRES   REMARKS
TROUTDALE      CLEAR     63  55  75 W5        29.90R                  
HOOD RIVER     CLEAR     61  52  72 CALM      29.85R                  
THE DALLES     CLEAR     71  50  47 NW16G26   29.79R                  
$$

ORZ029>031-041-044-049-050-061>064-502-503-505>511-190900-
EASTERN OREGON

  
CITY           SKY/WX    TMP DP  RH WIND       PRES   REMARKS
MADRAS         CLEAR     57  41  54 CALM      29.92S                  
REDMOND        CLEAR     58  42  55 SW3       29.92R                  
BEND           CLEAR     59  46  63 CALM      29.94S                  
PRINEVILLE     CLEAR     61  45  55 CALM      29.92S                  
KLAMATH FALLS  CLEAR     59  49  69 SE3       29.99R                  
LAKEVIEW       CLEAR     57  40  52 SE9       30.04R                  
HERMISTON      CLEAR     74  48  39 SW14      29.75R                  
PENDLETON      CLEAR     61  41  47 E7        29.79S                  
JOHN DAY       CLEAR     67  40  37 W7        29.94R                  
MEACHAM        CLEAR     49  41  74 CALM      29.93S                  
LA GRANDE      CLEAR     63  45  51 CALM      29.87R                  
BAKER CITY     CLEAR     64  44  48 VRB6      29.90R                  
BURNS          CLEAR     66  38  35 NW12      29.93R                  
ROME             N/A     63  24  22 SW3       29.90R                  
ONTARIO        CLEAR     65  50  58 W6        29.79R                  
$$